www.pogodaiklimat.ru

Погода и климат >> Архив погоды >> Россия >> Ульяновская область >> Димитровград


ПОГОДА в Димитровграде

АРХИВ ПОГОДЫ в Димитровграде

Время (UTC), дата Ветер
(напр.,м/с)
 
Видим.   Явления Облачность Т
(С)
Тd
(С)
f
(%)
Тe
(С)
Тes
(С)
Комфортность P
(гПа)
Po
(гПа)
Тmin
(С)
Tmax
(С)
R
(мм)
R24
(мм)
S
(см)
12 13.05 штиль 0 10 км 8/4 840 м
[Cu med, cong Ci fib]
+31.2 +5.4 20 +29 +35 жарко 1016.9 1008.6
15 13.05 штиль 0 10 км 10/4 800 м
[Cb cap Ac lent]
+28.2 +7.6 27 +28 +28 жарко 1016.4 1008.1 +32.3
18 13.05 СЗ 1 10 км {ливн. осадки} 8/3 800 м
[Cb cap Ci sp]
+21.1 +10.3 50 +23 +23 комфорт 1016.6 1008.1
21 13.05 СЗ 1 10 км 9/0
[Ac As]
+17.7 +12.4 71 +19 +19 тепло 1016.5 1007.9
00 14.05 СЗ 1 10 км 8/0
[Ci fib]
+15.3 +11.3 77 +16 +16 тепло 1016.1 1007.4
03 14.05 штиль 0 10 км 3/0
[Ac trans]
+19.3 +13.7 70 +21 +23 комфорт 1015.2 1006.6 +14.8 0.0
06 14.05 В 1 10 км 3/0
[Ci fib]
+26.9 +10.8 37 +28 +40 жарко 1014.6 1006.2
09 14.05 С 2 10 км 1/0
[Ci fib]
+30.4 +8.6 26 +30 +44 жарко 1013.6 1005.4
12 14.05 З 2 10 км слаб. ливневой дождь 8/8 750 м
[Cb cap]
+25.8 +16.2 55 +29 +31 душно 1012.6 1004.2
15 14.05 СЗ 1 10 км в посл. час гроза 8/6 750 м
[Cb cap Ci ing]
+23.5 +13.1 52 +26 +26 жарко 1012.5 1004.0 +32.1 1
18 14.05 ЮЗ 2 10 км слаб. ливневой дождь {гроза} 9/9 750 м
[Cb cap]
+20.1 +14.0 68 +23 +23 комфорт 1012.8 1004.3
21 14.05 В 1 10 км {ливн. осадки} 10/0
[Cs]
+19.2 +11.0 59 +21 +21 комфорт 1013.1 1004.6
00 15.05 штиль 0 10 км {ливн. осадки} ясно +15.0 +11.7 81 +15 +15 тепло 1013.0 1004.3
03 15.05 СЗ 1 10 км 3/0
[Ac trans]
+18.7 +13.4 71 +21 +23 комфорт 1013.9 1005.3 +13.9 0.5
06 15.05 штиль 0 10 км 9/9 840 м
[Cb cap]
+23.4 +13.8 55 +27 +28 душно 1014.2 1005.8
09 15.05 С 1 10 км {ливн. осадки} 8/8 840 м
[Cb cap]
+25.1 +14.3 51 +28 +31 жарко 1014.4 1006.0
12 15.05 СВ 1 10 км {ливн. осадки} 6/6 840 м
[Cb cap]
+27.9 +11.1 35 +29 +33 жарко 1013.7 1005.4
15 15.05 СЗ 1 10 км гроза без осадков 10/10 800 м
[Cb cap]
+23.2 +13.5 54 +26 +26 жарко 1013.9 1005.4 +28.6 0.0
18 15.05 В 1 10 км слаб. ливневой дождь {гроза} 10/10 750 м
[Cb cap]
-20.5 +15.6 100 -2 -2 очень
холодно
1014.8 1006.3
21 15.05 С 1 10 км {гроза, ливн. осадки} 10/10 800 м
[Cb cap]
+16.5 +15.6 94 +17 +17 тепло 1014.0 1005.4
00 16.05 СВ 1 10 км {гроза, ливн. осадки} 5/5 900 м
[Sc diur, vesp]
+16.6 +14.2 86 +17 +17 тепло 1014.4 1005.8
03 16.05 В 1 10 км 9/9 900 м
[Sc diur, vesp]
+15.7 +13.0 84 +16 +17 тепло 1014.4 1005.8 +15.3 8
06 16.05 Ю 2 10 км в посл. час ливневой дождь 10/10 870 м
[Cb cap]
+18.8 +15.9 83 +20 +20 тепло 1014.2 1005.6
09 16.05 З 1 10 км 9/9 900 м
[Cb cap]
+23.2 +15.6 62 +27 +29 душно 1013.9 1005.5
12 16.05 С 1 10 км гроза, ливневой дождь 10/10 870 м
[Cb cap]
+17.7 +16.9 95 +19 +19 тепло 1013.7 1005.1
15 16.05 штиль 0 10 км в посл. час гроза {ливн. осадки} 9/9 900 м
[Cb calv]
+16.9 +16.0 94 +17 +17 тепло 1013.6 1005.0 +24.9 13
18 16.05 СЗ 3
{10}
10 км в посл. час ливневой дождь {гроза} 10/10 870 м
[Cb cap]
+14.3 +13.1 92 +13 +13 по сезону 1015.1 1006.4
21 16.05 СЗ 3 10 км 10/10 900 м
[Cb cap]
+11.9 +9.6 86 +10 +10 по сезону 1016.3 1007.5
00 17.05 СЗ 2 10 км ясно +8.7 +4.9 77 +7 +7 по сезону 1018.0 1009.1
03 17.05 С 2 10 км ясно +10.5 +5.4 71 +9 +12 по сезону 1018.7 1009.8 +8.1 0.0
06 17.05 С 4
{11}
10 км 4/3 870 м
[Cu med, cong Ci sp]
+12.6 +1.0 45 +11 +16 по сезону 1019.6 1010.7
09 17.05 С 3
{12}
10 км 8/6 840 м
[Cu Sc Ci sp]
+13.9 +0.3 39 +13 +18 прохладно 1019.2 1010.4
12 17.05 С 3 10 км 8/5 840 м
[Cu med, cong Ci sp]
+15.1 +0.8 38 +15 +18 прохладно 1018.5 1009.8
15 17.05 СЗ 2 10 км 4/3 870 м
[Sc Ci sp]
+14.4 +0.4 38 +14 +15 по сезону 1017.9 1009.1 +16.0
18 17.05 СЗ 1 10 км ясно +7.9 +4.0 76 +7 +7 прохладно 1018.3 1009.3
21 17.05 СЗ 1 10 км ясно +4.4 +3.5 94 +3 +3 холодно 1017.1 1008.1
00 18.05 штиль 0 10 км 3/0
[Ac trans]
+3.4 +2.7 95 +2 +2 прохладно 1015.9 1006.8
03 18.05 З 2 10 км 10/10 870 м
[Sc]
+9.4 +3.5 67 +8 +8 по сезону 1014.7 1005.8 +3.2
06 18.05 З 2 10 км 8/6 900 м
[Sc Ac trans]
+12.6 +4.6 58 +12 +15 по сезону 1012.7 1004.0
09 18.05 СЗ 2 10 км 6/6 870 м
[Cb cap]
+17.4 +4.5 42 +18 +24 тепло 1010.6 1002.0
12 18.05 СЗ 3
{11}
10 км 8/8 800 м
[Cb cap]
+15.4 +4.4 48 +15 +16 прохладно 1010.4 1001.7
15 18.05 СЗ 4
{11}
10 км 4/4 900 м
[Sc diur, vesp]
+14.3 -0.3 37 +13 +14 по сезону 1010.7 1002.0 +18.7
18 18.05 С 2
{11}
10 км 10/10 930 м
[Sc]
+9.3 -1.1 48 +8 +8 прохладно 1012.6 1003.7
21 18.05 З 1 10 км 9/0
[Ac trans]
+7.7 +0.6 61 +7 +7 по сезону 1012.0 1003.1
00 19.05 ЮЗ 1 10 км 9/9 930 м
[Sc]
+6.2 +1.0 69 +5 +5 по сезону 1010.5 1001.5
03 19.05 СЗ 2 10 км 8/8 930 м
[Sc]
+8.9 +2.3 63 +7 +8 прохладно 1010.3 1001.5 +4.3
06 19.05 СЗ 2 10 км 8/8 800 м
[Cb cap Ci sp]
+9.9 +0.4 52 +9 +11 холодно 1011.1 1002.3
09 19.05 СЗ 2
{10}
10 км 9/8 800 м
[Cb cap Ci sp]
+12.2 -1.9 37 +12 +15 прохладно 1011.6 1002.8
12 19.05 СЗ 3 10 км 10/10 800 м
[Cb cap]
+10.5 -2.1 41 +9 +9 очень
холодно
1012.7 1003.8
15 19.05 СЗ 3 10 км 10/10 840 м
[Sc]
+8.6 -2.1 47 +7 +7 очень
холодно
1014.2 1005.2 +12.4
18 19.05 СЗ 2 10 км 10/10 870 м
[Sc]
+7.0 -2.2 52 +5 +5 холодно 1015.7 1006.7
21 19.05 СЗ 1 10 км 10/10 840 м
[Sc]
+6.5 -0.9 59 +6 +6 прохладно 1016.2 1007.2
00 20.05 СЗ 1 10 км 10/10 840 м
[Sc]
+4.8 -0.7 68 +4 +4 прохладно 1016.8 1007.7
03 20.05 СЗ 1 10 км 10/10 870 м
[Sc]
+7.0 +0.7 64 +6 +6 прохладно 1017.6 1008.6 +3.2
06 20.05 СЗ 3 10 км 9/9 900 м
[Cb cap]
+10.2 -0.5 47 +9 +9 прохладно 1017.0 1008.1
09 20.05 СЗ 3 10 км 10/10 900 м
[Sc]
+9.1 -1.0 49 +7 +7 очень
холодно
1018.0 1009.1

 

Местоположение метеостанции Димитровград (Ульяновская область, Россия): широта 54.23 долгота 49.60 высота над уровнем моря 73 м.

В архиве по умолчанию представлена погода в Димитровграде за последнюю неделю. Архивные данные за месяц целиком и за предыдущие месяцы, начиная с января 2011 года, Вы можете получить, выбрав интересующий диапазон дат из раскрывающегося списка и нажав кнопку "Ввод!".


*Определитесь, кто Вы:
робот инопланетянин человек

Внимание! Время в таблицах - всемирное. Для получения местного времени необходимо прибавить поправку, которая равна 4 ч.

Смотрите также архив погоды в соседних городах и на ближайших метеорологических станциях:

Погода в Сенгилее (Ульяновская область, Россия) (60 км)
Погода в Чулпаново (Татарстан, Россия) (61 км)
Погода в Тольятти (Самарская область, Россия) (80 км)
Погода в Тольятти (дамба) (Самарская область, Россия) (85 км)
Погода в Новодевичьем (Самарская область, Россия) (86 км)
Погода в Ульяновске (Ульяновская область, Россия) (89 км)
Погода в Курумоче (Самарская область, Россия) (89 км)
Погода в Тетюшах (Татарстан, Россия) (96 км)
Погода в Челно-Вершинах (Самарская область, Россия) (100 км)
Погода в Аксубаево (Татарстан, Россия) (101 км)

Пояснения к столбцам:

Ветер - указаны скорость ветра в м/с - средняя за 10 мин, порывы в срок и между сроками (в фигурных скобках) и направление, откуда дует ветер: С - северный, СВ - северо-восточный, В - восточный, ЮВ - юго-восточный, Ю - южный, ЮЗ - юго-западный, З - западный, СЗ - северо-западный.
Видимость - горизонтальная дальность видимости в метрах или километрах. При видимости от 1 до 10 км при отсутствии осадков обычно наблюдается дымка, при ухудшении видимости до 1 км и менее - туман. В сухую погоду видимость может ухудшаться дымом, пылью или мглою.
Явления - указаны атмосферные явления, наблюдавшиеся в срок или в последний час перед сроком; фигурными скобками обозначены явления, наблюдавшиеся между сроками (за 1-3 часа до срока); квадратными скобками обозначены град или гололедные отложения с указанием их диаметра в мм.
Облачность - указаны через наклонную черту общая и нижняя облачность в баллах и высота нижней границы облаков в метрах; квадратными скобками обозначены формы облаков: Ci - перистые, Cs - перисто-слоистые, Cc - перисто-кучевые, Ac - высококучевые, As - высокослоистые, Sc - слоисто-кучевые, Ns - слоисто-дождевые, Cu - кучевые, Cb - кучево-дождевые. Подробнее классификацию облаков см. в Атласе облаков (PDF).
T - Температура воздуха - температура, измеренная на высоте 2 м над землей.
Td - Температура точки росы - температура, при понижении до которой содержащийся в воздухе водяной пар достигнет насыщения.
f - Относительная влажность воздуха - влажноcть воздуха, измеренная на высоте 2 м над землей.
Te - Эффективная температура - температура, которую ощущает одетый по сезону человек в тени. Характеристика душности погоды. При расчете учитывается влияние влажности воздуха и скорости ветра на теплоощущения человека.
Tes - Эффективная температура на солнце - температура, которую ощущает человек, с поправкой на солнечный нагрев. Характеристика знойности погоды. Зависит от высоты солнца над горизонтом, облачности и скорости ветра. Ночью, в пасмурную погоду, а также при ветре 12 м/с и более поправка равна нулю.
P - Атмосферное давление - приведенное к уровню моря атмосферное давление.
Po - Атмосферное давление - измеренное на уровне метеостанции атмосферное давление.
Tmin - Минимальная температура - минимум температуры воздуха на высоте 2 м над землей.
Tmax - Максимальная температура - максимум температуры воздуха на высоте 2 м над землей.
R - Количество осадков - Количество выпавших осадков за период времени, мм. При наведении курсора мыши на число - период времени, за который выпало указанное количество осадков.
R24 - Количество осадков - Количество выпавших осадков за 24 часа, мм.
S - Снежный покров - Высота снежного покрова, см. При наведении курсора мыши на число - состояние снежного покрова и степень покрытия местности в баллах.